time	STAT_ANSAUGLUFTTEMPERATUR_WERT	STAT_DK_WINKEL_IST_WERT	STAT_DREHZAHL_WERT	STAT_LADEDRUCK_IST_WERT	STAT_LADEDRUCK_SOLL_WERT	STAT_LAMBDA_IST_WERT	STAT_LAMBDA_SOLL_WERT	STAT_RAILDRUCK_IST_WERT	STAT_RAILDRUCK_SOLL_WERT	STAT_TV_LADEDRUCKSTELLER_WERT
00:00:00.050	36	17.7978	2428.5	1076.41	1105	0.945557	0.9375	10.594	10.618	40.5365
00:00:00.121	36	17.7978	2432	1074.77	1104.84	0.942139	0.9375	10.632	10.6175	39.8605
00:00:00.191	36	17.6269	2436	1072.89	1105	0.941894	0.9375	10.401	10.619	40.4739
00:00:00.259	36	17.8223	2438	1072.42	1115.94	0.945312	0.9375	10.4415	10.644	42.4301
00:00:00.328	36	22.876	2453	1058.67	1115.16	0.949219	0.9375	10.3525	10.792	43.9194
00:00:00.401	36	26.6602	2478.5	1053.91	1125.78	0.958252	0.9375	10.7735	10.915	42.8223
00:00:00.469	36	31.4697	2475	1056.8	1218.44	0.950684	0.9375	11.2765	11.0035	57.0633
00:00:00.540	36	31.3721	2491	1063.52	1243.91	0.933106	0.9375	11.281	11.043	51.709
00:00:00.611	36	30.6885	2487.5	1072.89	1290.55	0.920898	0.9375	11.391	11.08	65.0864
00:00:00.678	36	30.2002	2498.5	1080.16	1424.53	0.919434	0.9375	11.2115	11.127	94.9997
00:00:00.751	36	29.1992	2510	1088.67	1533.52	0.930908	0.9375	11.102	11.1835	94.9997
00:00:00.819	36	29.4189	2522	1098.36	1593.83	0.936279	0.9375	11.402	11.225	94.9997
00:00:00.890	35.25	29.3701	2533	1105.62	1643.67	0.942139	0.9375	11.535	11.2465	94.9997
00:00:00.959	35.25	29.3701	2535	1119.84	1755.62	0.952148	0.9375	11.613	11.273	94.9997
00:00:01.031	35.25	29.3213	2550.5	1129.45	1835.55	0.958496	0.9375	11.413	11.315	94.9997
00:00:01.101	35.25	29.4189	2564.5	1146.33	2017.27	0.963135	0.9375	11.3055	11.3615	94.9997
00:00:01.169	35.25	29.3945	2577.5	1162.42	2091.02	0.958984	0.9375	11.296	11.389	94.9997
00:00:01.240	35.25	30.6885	2586.5	1178.44	2205.08	0.957031	0.9375	11.4605	11.4155	94.9997
00:00:01.309	35.25	36.9385	2595	1195.16	2297.34	0.970947	0.9375	11.528	11.4445	94.9997
00:00:01.380	35.25	43.0664	2606	1211.48	2310.23	0.984131	0.9375	11.8085	11.4555	94.9997
00:00:01.449	35.25	49.1455	2621	1240.7	2353.59	1.00073	0.9375	11.6805	11.466	94.9997
00:00:01.518	35.25	54.2969	2638.5	1267.34	2410.23	1.0022	0.9375	11.734	11.4785	94.9997
00:00:01.590	35.25	59.5215	2648	1294.84	2432.5	1.0105	0.9375	11.7805	11.489	94.9997
00:00:01.660	35.25	63.0615	2666	1323.83	2472.97	1.00122	0.9375	11.7925	11.495	94.9997
00:00:01.731	35.25	64.6484	2675	1363.28	2523.91	0.997559	0.9375	11.7035	11.503	94.9997
00:00:01.801	35.25	66.0645	2690.5	1395.16	2539.53	0.993896	0.9375	11.817	11.509	94.9997
00:00:01.871	35.25	65.7715	2699.5	1429.06	2538.12	0.988037	0.9375	12.065	11.5065	94.9997
00:00:01.940	35.25	65.625	2718	1461.56	2624.3	0.988281	0.9375	12.011	11.5075	94.9997
00:00:02.009	35.25	63.2812	2747.5	1501.25	2596.09	0.987793	0.9375	11.9255	11.5155	94.9997
00:00:02.080	35.25	59.7168	2753	1537.27	2554.3	0.984375	0.9375	11.856	11.511	94.9997
00:00:02.150	35.25	58.7646	2769	1577.89	2570.55	0.980225	0.9375	11.6595	11.518	94.9997
00:00:02.218	35.25	55.7373	2778	1606.88	2559.53	0.982178	0.9375	11.4215	11.523	94.9997
00:00:02.290	35.25	53.1494	2807.5	1651.25	2525.23	0.981934	0.9375	11.5425	11.516	94.9997
00:00:02.359	35.25	51.3672	2832.5	1688.52	2562.89	0.974121	0.9375	11.7575	11.5185	94.9997
00:00:02.430	35.25	49.6826	2835.5	1727.81	2516.95	0.975098	1	11.7645	11.5165	94.9997
00:00:02.500	35.25	48.0469	2863	1768.59	2335.62	0.982178	1	11.6865	11.5055	94.9997
00:00:02.570	35.25	46.5088	2876	1802.81	2336.48	0.979004	0.9375	11.496	11.4895	94.9997
00:00:02.640	35.25	44.1162	2907	1851.33	2299.22	0.982178	1	11.578	11.488	94.9997
00:00:02.710	35.25	40.8447	2920	1894.61	2363.67	0.991455	0.9375	11.436	11.496	94.9997
00:00:02.777	35.25	40.5273	2946.5	1937.81	2333.75	0.987549	0.9375	11.391	11.5025	94.9768
00:00:02.850	35.25	39.917	2946.5	1973.59	2449.61	0.982178	0.9375	11.578	11.51	94.9997
00:00:02.919	35.25	39.1357	2981.5	2013.75	2452.66	0.979981	1	11.59	11.521	94.9997
00:00:02.990	35.25	39.1602	3004.5	2051.41	2506.25	0.983154	0.9375	11.5045	11.531	94.9997
00:00:03.060	35.25	39.1846	3031	2094.77	2514.14	0.977051	0.9375	11.534	11.5395	89.6973
00:00:03.130	35.25	39.1846	3036.5	2140.86	2592.58	0.976318	0.9375	11.5925	11.549	94.9997
00:00:03.200	35.25	39.2334	3068	2187.11	2543.12	0.982422	0.9375	11.429	11.5485	70.108
00:00:03.269	35.25	38.4033	3103	2229.77	2644.22	0.983643	0.9375	11.534	11.5565	88.8657
00:00:03.340	35.25	38.2568	3099.5	2273.75	2638.67	0.978516	0.9375	11.69	11.562	78.4927
00:00:03.409	35.25	38.208	3137.5	2310.23	2571.48	0.97583	0.9375	11.699	11.5685	66.9052
00:00:03.480	35.25	38.1592	3169	2353.12	2576.72	0.976807	1	11.589	11.5745	67.4774
00:00:03.549	35.25	37.915	3192	2384.69	2547.19	0.972168	0.9375	11.5695	11.584	66.1865
00:00:03.621	35.25	37.793	3209.5	2407.19	2532.73	0.972656	0.9375	11.622	11.591	66.0523
00:00:03.690	35.25	37.4023	3238.5	2415.23	2543.59	0.979004	0.9375	11.402	11.6005	66.7816
00:00:03.760	35.25	36.9873	3245	2419.92	2541.48	0.98584	0.9375	11.1945	11.6065	66.394
00:00:03.831	35.25	35.6689	3280.5	2428.52	2535.55	0.970703	0.9375	11.2225	11.6145	67.186
00:00:03.901	35.25	34.9365	3313	2434.22	2547.34	0.951904	0.9375	11.4995	11.6215	65.9622
00:00:03.970	35.25	34.4727	3326	2437.11	2517.11	0.956299	0.9375	11.5595	11.632	65.921
00:00:04.038	35.25	34.0576	3360.5	2439.61	2492.73	0.954834	0.9375	11.5475	11.636	66.5359
00:00:04.112	35.25	33.5693	3380	2437.81	2448.67	0.952393	0.9375	11.6635	11.6425	62.2406
00:00:04.181	35.25	33.6182	3406.5	2432.11	2531.88	0.957275	0.9375	11.358	11.6495	65.7974
00:00:04.250	35.25	33.8135	3426	2425.62	2512.97	0.947998	0.9375	11.5145	11.66	66.3147
00:00:04.322	35.25	33.8867	3451.5	2420.7	2484.92	0.941162	0.9375	11.496	11.666	65.9195
00:00:04.391	35.25	34.1797	3469	2403.36	2506.56	0.928467	0.9375	11.745	11.6745	66.5421
00:00:04.462	35.25	34.2041	3493.5	2392.97	2479.84	0.934815	0.9375	11.6545	11.68	66.1621
00:00:04.532	35.25	34.3018	3534.5	2384.06	2664.22	0.929932	0.9375	11.739	11.707	70.3156
00:00:04.600	35.25	34.3506	3533.5	2390.55	2681.33	0.921387	0.875	11.801	11.72	74.942
00:00:04.670	35.25	34.375	3552.5	2403.36	2813.12	0.917481	0.875	11.5075	11.735	77.2766
00:00:04.740	35.25	34.668	3588.5	2418.2	2920.08	0.917481	0.875	11.589	11.755	90.123
00:00:04.810	35.25	35.2295	3612	2430.7	2974.45	0.913574	0.875	11.755	11.781	90.3061
00:00:04.883	35.25	35.1562	3628.5	2451.64	2989.3	0.908691	0.875	11.6525	11.794	92.3065
00:00:04.950	35.25	35.7178	3659	2468.2	2996.56	0.907715	0.875	11.823	11.8135	92.0746
00:00:05.021	35.25	38.501	3697	2478.2	2999.53	0.908447	0.875	12.0355	11.824	88.4842
00:00:05.091	35.25	42.1875	3714.5	2492.27	2999.22	0.9104	0.875	11.9755	11.833	87.236
00:00:05.161	35.25	42.8711	3730.5	2512.34	2999.53	0.909912	0.875	11.6525	11.836	87.2513
00:00:05.232	35.25	46.0693	3768	2523.98	2999.53	0.897461	0.875	11.53	11.847	86.4288
00:00:05.299	35.25	53.2227	3787	2542.5	2999.45	0.900635	0.875	11.563	11.8575	86.5189
00:00:05.371	35.25	58.9844	3810.5	2556.17	2999.3	0.899658	0.875	11.5825	11.8775	84.2697
00:00:05.441	35.25	65.3809	3864.5	2561.72	2999.38	0.890381	0.875	11.6255	11.8865	84.6863
00:00:05.510	35.25	72.0215	3855	2572.34	2999.53	0.874756	0.875	11.511	11.8945	84.5505
00:00:05.580	35.25	74.6094	3897.5	2586.72	2999.45	0.866699	0.875	11.4235	11.8995	84.6024
00:00:05.648	35.25	76.5625	3938.5	2593.2	2998.36	0.871826	0.875	11.292	11.914	83.0933
00:00:05.718	35.25	77.3926	3932	2603.52	2999.61	0.86499	0.875	11.2055	11.9215	83.3984
00:00:05.788	35.25	78.125	3911.5	1006.72	1389.77	0.851807	0.875	11.1675	11.316	0
00:00:05.858	35.25	72.6074	3932	2481.8	1430.08	0.792481	0.8125	10.251	11.149	0
00:00:05.929	35.25	30.6641	3915.5	2327.03	1444.3	0.9021	0.875	11.2665	11.1835	0
00:00:05.998	35.25	31.0791	3984.5	1974.92	1460.16	0.822021	0.875	12.5155	11.2365	0
00:00:06.068	35.25	30.7373	3944	1943.44	1469.45	0.947754	0.875	12.458	11.2555	0
00:00:06.138	35.25	30.6885	3993	1806.72	1477.5	0.907471	0.875	12.038	11.2715	0
00:00:06.209	35.25	32.9346	4008	1686.88	1466.95	0.864746	0.8125	11.6085	11.28	0
00:00:06.278	35.25	39.0381	4025	1577.5	1467.03	0.799072	0.75	11.411	11.2865	0
00:00:06.348	35.25	40.1611	4028	1508.98	1463.52	0.756104	0.75	11.46	11.291	0
00:00:06.418	35.25	39.6729	4044.5	1448.28	1416.88	0.770752	0.75	11.6545	11.2635	0
00:00:06.489	35.25	38.3545	4058.5	1389.53	1272.97	0.798828	0.75	11.789	11.1745	0
00:00:06.558	35.25	34.3994	4059.5	1351.33	1201.72	0.832275	0.8125	11.5145	10.9835	0
00:00:06.631	35.25	29.0039	4033	1334.3	1182.58	0.848877	0.875	11.18	10.9255	0
00:00:06.702	35.25	14.0625	4014.5	1406.48	1093.59	0.908447	0.9375	10.754	10.6505	0
00:00:06.768	35.25	9.10645	4030	1327.97	1093.59	0.881592	0.9375	10.7075	9.9535	22.9156
00:00:06.838	35.25	7.8125	4016	1266.72	1093.59	0.887207	0.9375	10.147	9.541	38.9832
00:00:06.907	35.25	8.25195	3966	1215.23	1093.59	0.944824	0.9375	9.874	9.211	85.083
00:00:06.978	35.25	8.44727	3988.5	1182.27	1093.59	1.00952	1	9.704	8.9895	84.4406
00:00:07.048	35.25	8.93555	4043.5	1155.31	1093.59	1.20117	0.9375	9.516	8.77	84.3872
00:00:07.116	35.25	9.2041	4000	1139.69	1093.59	1.25561	0.9375	9.1745	8.453	84.5718
00:00:07.186	35.25	9.13086	4015.5	1126.17	1093.59	1.20532	0.9375	8.8425	8.1985	84.8114
00:00:07.257	35.25	9.22852	4000	1111.48	1093.59	1.1521	0.9375	8.336	7.8375	84.8465
00:00:07.328	35.25	9.22852	3999.5	1098.67	995.391	1.00366	0.9375	8.004	7.568	74.0555
00:00:07.398	35.25	9.375	3981.5	1088.05	995.391	0.959717	0.9375	7.501	7.286	74.0539
00:00:07.468	35.25	9.42383	3976.5	1082.19	995.469	0.924072	0.9375	7.1565	7.1315	74.2142
00:00:07.536	35.25	9.42383	3983	1073.28	995.547	0.915771	0.9375	6.704	6.9835	74.1287
00:00:07.607	35.25	9.47266	3974	1069.69	995.469	0.926758	0.9375	6.418	6.904	74.1104
00:00:07.678	35.25	9.57031	3967.5	1062.03	995.547	0.938721	1	6.1255	6.8255	74.1867
00:00:07.748	35.25	9.59473	3962	1059.22	995.547	0.961914	1	5.864	6.772	74.2828
00:00:07.819	35.25	9.52148	3954.5	1056.33	995.625	1.0271	1	5.8055	6.741	74.3378
00:00:07.889	35.25	9.57031	3951	1054.45	995.625	0.990479	1	5.874	6.717	74.585
00:00:07.958	35.25	9.59473	3931.5	1050.86	995.469	0.991699	1	5.992	6.6915	74.6185
00:00:08.028	35.25	9.69238	3922	1047.58	995.547	0.988281	1	6.101	6.6755	74.7055
00:00:08.098	35.25	9.7168	3937	1047.97	995.547	1.01367	1	6.184	6.66	74.649
00:00:08.169	35.25	9.59473	3929	1044.77	995.469	1.02051	1	6.195	6.6525	74.6994
00:00:08.239	35.25	9.69238	3920.5	1045.55	995.625	1.00586	1	6.223	6.6425	74.968
00:00:08.307	35.25	9.66797	3907.5	1044.38	995.547	1.01856	1	6.3155	6.634	74.9573
00:00:08.378	35.25	9.66797	3898.5	1043.98	995.625	1.01367	1	6.323	6.6275	74.8947
00:00:08.447	35.25	9.66797	3901	1042.73	995.625	1.09815	1	6.6955	6.6195	74.0784
00:00:08.518	35.25	9.69238	3901.5	1040.78	995.625	1.64893	1.5	6.8675	6.6135	73.7244
00:00:08.588	35.25	9.76562	3893	1040.78	995.547	2.57837	2.875	6.96	6.6075	73.4268
00:00:08.656	35.25	9.7168	3879.5	1040.78	995.625	4.2124	5.1875	7.047	6.5995	73.2056
00:00:08.729	35.25	9.7168	3873.5	1041.56	995.625	6.02051	8.1875	7.0715	6.5935	73.0637
